Lid_Strength_Index
12 11 12 11 11 12 12 12 12 12 12 12 12 12 13 14 14 14 13 13 13 13 13 13 13 14 14 15 14 15 15 14
12 12 12 12 12 12 12 12 13 13 13 13 12 12 13 14 13 13 14 14 13 13 14 14 14 14 14 14 14 15 15 14
12 13 12 12 13 13 13 13 13 13 14 13 13 12 13 13 13 14 14 13 13 14 14 14 14 14 15 15 15 15 15 15
13 13 13 12 12 13 13 13 13 13 13 13 13 13 13 13 13 14 14 14 14 14 14 14 14 14 13 14 14 14 15 14
13 13 13 12 12 13 13 12 12 12 12 13 13 13 13 12 13 13 13 14 15 14 14 14 13 13 13 14 14 13 13 13
12 12 12 12 11 11 12 11 11 12 13 13 12 12 12 13 13 13 14 13 14 14 14 13 13 13 13 14 13 13 13 13
12 11 11 11 11 10 11 11 11 12 13 12 12 12 12 12 12 13 13 14 14 14 14 13 13 11 10 9 11 12 13 13
10 10 10 10 9 10 10 11 12 13 13 13 12 12 12 12 12 13 13 13 14 15 14 14 14 11 11 10 11 11 11 11
9 9 9 9 9 10 10 12 12 12 13 13 12 12 12 13 13 13 13 14 14 15 15 15 15 12 11 11 11 12 11 11
8 8 9 9 10 11 12 11 12 12 12 12 13 14 14 14 14 14 15 15 15 15 15 16 16 13 13 13 13 13 12 12
9 9 10 11 12 12 13 14 14 13 13 14 15 16 17 16 17 17 17 17 17 17 17 17 17 15 14 14 15 15 14 13
10 11 11 12 13 14 14 15 14 15 16 17 17 19 19 19 19 20 20 20 21 21 20 20 19 19 15 14 15 16 15 14
12 12 12 13 14 15 16 15 16 17 18 19 20 20 20 21 22 22 22 23 23 23 22 21 20 18 17 15 14 13 15 14
14 14 13 15 16 17 16 16 17 19 21 21 20 20 21 22 22 23 23 23 23 23 23 23 21 20 17 16 15 14 15 13
16 17 17 17 15 18 17 17 19 21 21 20 21 22 22 22 22 23 23 24 23 23 24 23 22 22 21 20 20 17 17 14
17 17 17 16 17 19 17 19 20 20 20 22 22 23 24 24 24 23 22 21 21 20 20 20 20 19 17 17 18 18 16 15
17 17 18 19 19 19 21 21 21 21 22 22 23 24 24 24 24 19 17 15 14 14 15 16 15 15 15 15 14 14 13 16
19 19 20 20 20 20 21 22 21 22 22 22 23 25 25 24 25 25 21 16 15 14 14 14 14 14 14 15 15 14 14 16
20 22 23 22 22 20 22 21 21 22 22 23 23 24 24 24 24 23 23 23 21 17 15 14 13 13 13 14 14 17 16 16
23 23 23 24 21 22 22 21 23 23 22 23 23 23 22 22 23 22 22 21 20 19 16 16 14 14 13 13 15 16 15 15